Wind_Speed
15 16 16 16 16 17 17 17 17 18 18 19 19 18 18 18 19 20 20 20 19 19 19 18 18 18 18 17 15 16 16 17 19 22 25 20 12 13 17 18 14 14 17 17 16 16 14 12 10 8 7 6 5 5 5 4 5 4 2 3 2 3 4 5 5 7 11 11 12 19 23 20 13 14 18 17 21 24 15 9 11 6 11 21 21 30 31 27
15 16 16 16 16 16 17 17 18 18 18 19 19 19 19 18 19 20 20 21 20 20 19 19 18 18 19 17 15 16 18 19 20 24 24 14 11 15 17 19 18 17 18 17 17 15 14 12 9 6 4 5 4 3 3 3 6 4 3 3 4 4 5 7 9 12 15 15 16 20 22 21 19 22 23 16 15 17 13 12 14 14 19 22 26 31 28 30
16 16 16 16 16 17 17 17 18 18 19 19 19 20 19 19 19 20 20 21 21 21 20 19 19 19 19 17 16 16 19 22 24 23 15 9 12 16 18 21 22 21 19 17 16 15 14 11 9 7 5 5 5 5 4 3 5 5 4 3 6 6 4 9 17 19 23 25 19 17 19 20 25 28 22 16 15 13 12 15 18 19 24 28 30 31 30 31
16 16 16 16 17 17 18 18 18 18 19 19 19 20 20 20 20 20 20 21 21 21 21 20 20 19 19 18 15 16 19 21 18 11 4 5 8 13 17 22 23 23 21 18 17 16 14 11 10 7 5 4 3 4 4 6 6 4 6 5 6 7 5 10 22 23 28 31 23 20 19 17 24 26 22 21 14 5 11 23 27 27 31 33 33 32 32 31
17 17 17 17 17 17 18 18 18 19 19 20 20 20 20 20 20 20 21 21 21 22 21 20 21 20 19 18 15 15 16 11 4 2 2 5 7 12 16 21 24 24 22 20 19 17 15 11 9 6 3 2 1 2 4 9 9 3 8 12 9 11 6 12 25 26 28 28 23 22 19 19 23 21 26 28 13 10 20 28 32 35 36 35 36 34 32 32
17 17 17 17 17 17 18 18 19 19 19 20 20 20 20 20 21 21 21 21 21 22 22 20 20 20 20 19 15 14 9 4 4 2 6 10 9 11 14 20 24 24 23 22 21 19 15 9 5 4 2 0 2 4 5 5 6 4 7 11 16 19 10 14 26 27 29 25 20 20 21 25 21 15 27 26 12 19 28 29 33 36 37 36 35 34 33 33
18 18 18 18 18 18 18 19 19 20 20 20 21 21 21 21 21 21 21 21 21 22 22 21 21 20 20 20 17 13 9 14 13 8 9 10 8 8 12 20 23 24 24 23 23 19 13 6 5 3 2 1 3 5 4 9 6 6 5 6 17 21 14 21 29 28 28 24 21 25 24 25 20 15 20 14 9 22 27 28 33 35 36 36 34 34 34 34
18 19 19 19 19 19 19 19 19 20 21 21 21 21 21 21 21 22 22 22 22 22 22 22 21 20 20 19 16 12 15 18 12 7 8 7 4 4 10 20 23 24 24 23 23 19 11 5 5 4 1 1 4 4 3 10 6 4 5 5 12 15 19 27 30 29 27 25 26 27 21 19 23 21 15 11 16 26 29 30 33 34 35 36 35 35 34 33
19 19 19 20 20 20 20 19 20 20 21 21 22 22 22 22 22 23 22 22 22 22 23 23 22 21 18 18 13 11 14 12 7 7 7 6 4 2 7 19 23 24 24 23 21 19 12 5 5 5 1 2 5 4 4 6 2 1 6 10 12 15 23 29 28 28 28 26 28 21 11 14 23 20 9 13 25 28 32 33 33 35 35 34 35 35 34 33
20 20 20 20 20 21 21 20 20 21 21 22 22 22 22 22 23 23 23 23 23 23 23 22 23 21 18 16 9 5 9 8 7 7 6 8 6 2 5 14 20 23 23 22 20 19 12 6 5 4 2 4 4 5 7 3 3 3 12 16 18 20 23 28 25 25 26 23 29 21 9 15 22 15 6 14 28 31 34 33 34 35 35 34 33 34 34 33
21 21 21 21 21 21 21 21 22 21 22 22 23 23 23 23 23 24 24 23 23 23 23 22 23 22 19 14 8 7 9 9 9 7 5 10 8 5 4 7 14 20 21 21 20 17 12 8 7 2 2 2 6 8 8 7 3 13 22 15 15 19 18 25 21 22 22 13 26 27 11 11 11 6 11 23 31 34 36 33 33 34 33 33 32 33 34 33
21 22 21 21 22 21 22 22 22 22 23 23 23 23 23 24 24 25 24 24 24 23 23 23 22 22 18 15 16 14 11 12 14 12 8 11 11 9 7 7 10 14 18 20 18 14 10 9 8 6 5 3 7 5 8 13 6 17 24 13 9 12 11 18 18 21 19 9 26 29 10 4 2 5 20 31 33 34 35 33 32 32 32 33 32 33 34 32
22 22 22 22 22 22 22 22 22 23 23 23 23 23 24 24 24 25 25 24 24 23 23 22 22 22 16 16 22 18 14 15 17 15 11 12 12 11 11 11 10 12 14 15 14 11 8 9 9 10 9 5 3 3 11 12 5 10 13 12 8 8 5 10 14 19 16 16 30 22 5 3 2 11 26 32 34 33 31 31 31 31 31 32 32 34 33 32
22 22 23 23 23 23 23 23 23 23 23 24 23 23 24 24 24 25 25 25 24 23 23 21 20 18 14 19 26 20 14 14 17 17 13 13 13 11 12 13 13 14 12 10 10 10 9 8 8 10 8 5 5 5 10 7 7 2 3 8 6 7 6 7 9 15 12 16 23 12 2 6 4 13 29 33 35 34 29 29 31 30 32 33 33 34 34 32
21 22 22 23 23 24 23 24 23 23 23 24 23 23 23 23 23 24 25 24 22 20 19 17 15 13 13 21 24 14 9 10 16 18 14 12 12 10 10 11 13 13 12 10 9 9 8 8 8 7 4 4 5 3 4 4 4 2 2 4 3 6 7 6 7 12 15 15 12 6 4 4 5 15 28 34 35 34 31 29 30 31 32 33 34 35 35 34
22 22 22 22 23 23 24 24 24 24 23 23 23 22 22 23 22 22 21 17 15 12 10 9 9 8 8 14 13 6 6 8 11 14 14 13 11 9 8 8 11 12 11 9 9 9 8 7 8 5 3 2 1 3 4 4 1 3 2 4 5 5 7 5 8 11 17 16 7 3 6 4 5 17 28 33 34 33 29 29 31 32 33 34 34 35 36 36
23 23 22 22 22 22 23 24 25 25 23 23 23 21 22 21 20 18 11 10 13 12 9 7 8 8 9 12 10 6 3 3 5 8 12 13 11 9 9 9 10 12 11 10 9 9 8 7 5 3 3 2 3 5 3 2 2 4 2 4 5 7 9 7 6 10 11 15 6 3 7 6 6 18 28 31 34 32 27 29 31 32 33 34 35 35 36 37
25 25 24 23 23 22 22 23 25 26 23 22 22 22 20 17 16 11 6 12 17 12 9 8 4 5 8 9 7 6 7 11 12 9 9 12 12 11 11 10 8 12 11 8 9 9 8 6 3 2 1 1 3 5 4 4 5 5 6 5 3 7 11 11 8 7 9 11 8 6 7 7 7 15 24 29 33 30 27 30 32 32 33 34 35 35 34 37
25 25 25 25 24 23 22 23 24 25 24 21 21 21 15 12 12 6 7 18 17 7 6 7 5 5 11 17 15 13 16 20 17 13 12 11 12 13 12 11 10 13 10 4 6 9 9 3 2 3 2 3 4 6 7 8 8 7 6 5 7 8 9 10 7 9 12 8 6 9 8 8 11 14 19 26 31 28 27 29 30 31 32 33 35 35 34 35
24 25 26 26 25 24 23 23 23 24 23 21 22 18 11 12 9 4 15 26 19 12 13 15 17 19 24 29 27 21 21 21 16 15 12 10 11 14 15 14 12 11 8 5 4 8 11 5 3 5 6 7 8 8 9 7 6 6 2 3 7 10 8 8 7 9 13 8 4 8 9 11 14 15 17 25 27 22 22 24 26 30 31 33 35 36 36 34
24 24 25 26 26 25 23 23 23 22 22 22 20 13 8 10 6 6 20 27 23 21 23 25 24 25 28 30 30 25 21 18 19 18 14 12 13 13 13 13 8 5 5 6 4 5 9 7 7 9 9 9 9 8 7 5 3 5 4 3 3 6 7 6 8 12 11 7 4 5 7 10 13 15 17 22 21 18 23 24 25 30 31 34 36 36 37 35
24 24 25 26 26 25 23 24 23 21 21 18 14 9 6 8 6 7 12 16 27 30 27 27 24 27 30 30 32 26 15 13 19 21 15 12 15 13 10 9 6 3 4 4 3 3 4 6 10 10 8 7 7 5 6 5 4 3 4 4 2 4 1 1 6 13 10 4 5 7 8 9 10 12 15 20 21 22 30 32 31 33 31 33 35 37 37 34
25 24 24 25 25 25 23 23 23 21 18 14 11 6 4 7 8 10 8 10 24 29 24 25 26 28 30 30 31 22 14 12 15 19 16 12 15 18 12 7 6 5 4 5 6 6 4 6 10 7 8 7 6 4 7 5 4 4 3 5 2 3 2 1 6 12 7 2 5 7 5 3 5 6 9 18 23 23 29 33 34 36 35 37 39 40 39 36
25 25 25 25 25 25 22 23 23 18 12 12 10 3 3 8 10 13 10 7 13 18 21 25 25 28 31 29 24 17 17 16 14 17 17 13 16 18 12 7 7 5 5 6 7 7 5 7 6 6 8 9 7 5 7 5 4 3 4 5 4 5 6 4 6 10 3 4 5 8 4 3 4 6 7 12 18 17 21 26 27 32 38 40 39 39 41 40
25 25 25 25 26 25 22 22 18 12 12 12 7 3 5 9 11 12 8 4 7 10 14 16 16 23 27 22 17 17 15 14 16 17 16 16 17 13 9 9 8 5 6 6 7 6 7 9 5 4 5 7 7 6 6 7 4 3 4 7 7 8 8 3 8 10 5 2 4 9 4 4 4 8 8 8 11 13 15 19 23 29 34 34 33 35 38 40
25 24 24 25 25 26 23 17 13 14 17 11 4 5 7 8 10 8 2 2 5 5 3 4 6 8 11 15 20 18 8 9 19 22 17 17 19 15 8 6 5 5 7 5 3 3 5 8 6 5 5 6 6 6 6 8 5 2 5 8 9 10 10 8 11 10 5 3 7 9 7 3 3 8 10 8 9 11 10 13 20 28 30 30 33 36 37 38
24 24 24 24 24 26 24 17 16 18 15 9 6 7 6 7 7 4 1 4 4 4 2 3 4 1 3 10 22 17 3 8 17 23 23 18 20 22 12 4 3 4 5 5 3 3 5 8 6 7 7 5 5 5 6 8 7 3 6 8 9 11 11 11 12 10 6 3 3 6 3 2 3 8 10 9 9 11 11 11 16 24 29 32 35 37 39 40
24 23 24 24 22 23 25 22 19 16 12 10 10 7 6 7 5 1 3 2 4 3 2 4 5 4 4 8 24 18 4 6 8 16 26 21 19 21 12 6 7 5 5 6 6 5 4 9 8 7 6 5 6 6 7 10 6 7 7 8 9 11 11 11 10 9 5 5 3 6 3 3 4 5 6 9 10 12 15 16 15 21 29 33 35 38 39 42
24 22 23 24 22 21 24 24 19 15 12 11 9 7 7 6 4 2 4 1 4 3 2 2 3 5 2 8 19 18 9 7 4 11 23 22 21 19 11 10 9 6 6 7 6 6 3 8 9 8 6 5 6 6 8 10 6 7 5 6 4 6 8 9 8 6 4 5 7 11 8 5 5 4 5 8 9 13 16 16 16 21 30 34 36 39 40 42
24 22 21 24 23 22 24 22 16 13 10 8 8 8 7 3 2 3 1 2 3 4 4 3 3 3 2 5 7 10 9 7 5 10 16 19 24 19 12 15 11 5 4 4 5 7 5 7 6 5 6 7 7 7 9 11 10 5 1 3 3 1 1 2 1 3 4 3 7 14 15 9 4 4 5 8 12 18 17 14 15 19 27 33 37 39 40 41
25 22 21 24 24 24 26 21 13 10 9 9 10 7 3 1 3 3 4 2 3 5 4 3 3 5 2 2 3 5 5 4 4 9 9 11 15 10 6 9 7 3 3 4 4 4 5 8 5 3 7 8 6 5 7 10 9 4 1 2 1 3 4 5 4 3 4 6 7 12 14 10 6 5 7 13 18 20 18 15 16 18 26 35 38 40 41 42
25 23 21 22 24 27 27 21 14 13 11 10 10 6 0 1 1 3 4 3 2 2 2 2 4 6 5 4 2 4 4 3 4 6 7 6 6 6 5 5 6 4 4 5 3 3 5 7 5 4 7 8 6 3 3 4 4 5 3 4 4 2 2 1 2 1 4 6 5 9 11 8 7 6 10 17 18 19 18 20 21 23 30 36 40 41 41 42
26 25 24 22 24 28 26 18 15 15 11 7 7 4 3 3 3 7 5 2 3 2 2 3 8 8 5 4 3 3 3 5 6 6 7 7 7 8 7 5 8 8 3 4 4 4 3 6 7 5 6 7 8 4 4 3 3 6 5 5 5 3 2 3 3 0 2 6 6 6 9 5 5 5 9 15 20 25 27 30 32 30 35 40 43 44 42 41
26 26 27 24 25 27 23 17 15 15 11 8 4 1 3 4 4 5 5 6 5 4 4 5 9 11 8 4 3 3 3 5 5 6 6 6 6 6 6 5 6 7 4 3 4 5 5 6 8 8 4 5 8 7 7 5 4 6 5 6 6 5 5 4 4 4 5 6 3 2 5 6 5 7 10 16 25 31 33 36 33 28 35 42 42 41 40 40
28 26 27 27 24 21 17 15 15 15 14 10 4 2 5 5 3 2 4 6 3 5 6 7 6 7 7 4 4 3 4 5 3 5 5 6 7 7 7 7 7 6 5 4 3 3 6 7 7 7 7 6 6 6 8 6 4 4 4 5 5 7 6 3 4 6 5 3 2 2 3 6 5 6 5 7 17 21 23 28 23 20 30 36 34 35 38 40
30 26 25 24 19 13 11 14 16 17 19 14 5 3 6 4 3 3 2 3 2 2 3 5 3 3 5 3 3 3 2 4 2 3 3 4 6 8 8 7 8 9 7 6 4 2 5 6 6 6 8 9 9 8 8 8 5 2 4 4 5 6 7 4 2 1 3 3 3 3 4 4 2 5 7 4 6 9 12 18 19 23 30 31 31 35 39 41
31 29 25 19 14 13 13 12 17 21 22 14 5 5 5 3 4 5 2 1 1 0 3 2 2 2 2 3 3 4 4 4 2 3 3 3 4 7 8 6 9 12 10 7 4 2 5 4 6 6 8 12 15 12 7 9 10 4 5 7 4 2 3 3 2 1 3 3 4 3 6 4 3 4 5 3 3 8 12 15 19 22 26 28 31 35 39 43
32 31 24 17 15 18 16 11 17 25 21 10 4 5 3 4 4 3 3 4 3 2 3 0 2 2 2 2 3 4 5 5 4 3 3 3 4 8 10 6 7 13 14 12 6 3 5 3 7 6 9 9 8 9 7 8 9 5 4 5 5 2 1 1 3 3 2 3 3 2 3 4 5 5 5 4 7 11 12 14 15 16 21 29 33 35 39 42
30 26 18 16 20 18 10 8 20 26 16 5 5 5 3 4 5 6 8 6 3 2 2 2 3 2 3 2 3 5 4 2 4 4 3 4 4 7 12 10 8 11 15 14 8 2 4 4 6 5 6 4 1 5 7 8 6 1 1 2 2 3 5 4 3 4 4 3 3 3 3 3 6 6 7 10 11 12 12 12 12 16 26 33 33 34 38 40
25 16 11 16 16 6 5 13 21 19 8 3 6 4 2 4 5 9 12 9 2 2 3 3 4 3 4 5 5 4 3 3 3 3 3 4 4 6 10 12 8 9 15 15 10 5 3 4 5 6 4 3 2 4 7 8 6 4 3 4 2 2 2 2 1 3 4 4 3 3 3 5 6 5 8 12 12 12 14 15 14 19 26 30 32 36 39 40
20 8 5 11 12 13 11 9 10 6 3 3 3 3 3 4 3 6 13 13 6 6 7 5 5 6 5 6 5 3 3 3 4 4 4 4 5 4 8 13 11 8 11 10 9 7 4 4 6 6 5 4 7 7 7 9 9 8 7 7 6 4 4 3 3 2 2 4 5 5 4 7 6 4 7 9 8 9 13 15 14 17 25 30 35 40 41 42
15 3 3 5 6 5 4 3 3 2 2 3 3 3 4 4 4 6 11 11 6 6 8 7 6 7 6 7 6 4 3 4 5 4 4 7 8 7 10 17 18 13 10 8 10 9 5 4 5 8 6 7 10 9 7 9 9 7 6 7 7 5 5 6 5 4 1 1 2 4 2 7 6 4 6 7 7 10 15 15 13 18 29 35 38 41 41 44
13 9 7 5 5 8 5 3 3 2 2 4 4 5 6 4 2 3 4 5 3 4 5 5 6 7 7 6 6 5 4 5 6 6 6 8 10 14 18 23 23 15 9 7 9 8 5 4 5 7 6 6 8 8 5 4 5 4 6 4 5 6 6 7 5 5 4 3 2 3 3 6 6 4 5 6 6 9 16 20 19 21 27 33 37 39 41 44
17 16 8 3 2 9 7 2 3 4 3 5 5 6 8 6 5 6 5 4 5 4 4 5 6 7 6 4 6 7 4 3 5 6 7 6 7 16 23 28 26 14 9 11 10 9 6 3 5 6 5 6 7 6 6 3 3 4 4 4 6 8 8 5 3 4 3 4 6 5 4 6 6 5 1 2 6 7 12 21 25 23 25 30 35 39 42 45
14 12 8 6 3 6 7 0 1 2 2 3 3 4 6 5 8 13 12 10 10 8 5 6 7 8 6 3 5 8 7 4 4 5 5 4 6 10 14 21 25 16 12 18 20 17 9 4 6 7 7 8 7 7 6 3 2 3 4 6 8 9 11 6 3 4 4 4 5 6 5 6 7 4 1 2 5 8 10 17 23 25 28 33 36 40 43 44
6 4 5 9 6 1 3 3 6 4 2 3 3 3 4 3 6 12 12 10 13 12 8 8 8 8 7 5 6 9 9 7 5 5 5 5 4 5 12 13 13 14 13 12 15 13 4 3 8 10 10 11 9 8 7 4 4 4 5 8 9 10 11 8 5 5 6 4 4 6 6 5 5 5 4 5 6 9 10 12 18 25 31 36 38 39 40 41
2 1 2 5 6 4 3 4 8 5 3 3 3 3 4 3 3 6 6 6 11 12 8 7 9 8 8 8 7 7 7 5 5 6 8 7 4 5 13 13 3 7 11 10 14 9 2 3 9 12 14 16 13 12 9 5 5 8 8 10 11 10 10 9 7 7 7 7 5 9 6 9 9 9 9 9 9 8 8 12 21 29 32 33 34 34 35 37
2 3 3 3 3 2 2 5 9 7 5 4 3 3 4 5 3 3 4 7 10 10 6 4 7 9 12 11 7 4 3 1 4 6 6 5 4 5 9 7 4 7 7 6 13 8 3 4 7 9 14 16 14 15 14 8 7 8 8 10 12 12 13 13 12 10 11 9 8 8 9 11 11 11 12 13 14 14 15 20 25 27 27 27 28 31 33 37
2 4 5 4 3 4 7 11 12 9 6 5 4 4 3 4 4 4 4 5 7 6 3 2 5 8 10 10 9 5 4 4 3 5 4 3 4 3 4 5 5 7 10 3 3 3 3 6 7 9 12 14 13 15 16 12 11 9 9 11 11 11 15 16 12 8 11 10 7 10 14 13 11 13 15 16 16 15 15 19 21 22 25 27 29 32 35 38
4 4 6 8 6 8 11 10 7 6 6 5 3 3 3 3 3 7 7 5 6 6 2 2 6 9 9 6 7 7 6 8 8 7 4 2 3 2 2 3 5 6 7 3 2 3 1 5 5 8 8 10 12 14 14 13 12 13 14 13 10 9 11 11 7 5 5 3 0 7 13 11 8 7 8 9 10 9 9 14 20 24 29 31 31 34 35 36
6 1 3 6 6 7 7 5 3 3 4 3 2 2 4 3 4 8 9 8 8 5 3 5 7 6 7 5 3 6 3 4 8 8 8 7 6 5 4 4 4 5 5 2 2 2 1 3 1 5 5 7 9 13 14 11 9 11 15 14 9 9 8 6 6 7 8 5 4 5 7 10 7 3 5 6 8 10 11 16 22 25 30 33 32 32 33 34
6 0 2 3 3 4 4 3 3 3 2 1 3 5 5 7 10 10 7 6 5 7 9 9 5 2 3 4 1 2 8 11 10 10 11 15 16 13 11 10 9 5 2 1 3 0 3 1 1 4 5 6 8 10 10 6 4 7 10 9 8 7 6 4 2 2 4 8 8 5 7 10 7 7 8 7 8 10 13 19 24 26 27 30 31 33 33 33
Wind_Direction
336 337 337 337 338 337 336 336 335 333 333 333 334 336 337 336 332 331 331 331 330 329 329 328 327 328 326 321 318 315 312 304 299 287 276 274 270 258 249 244 233 223 227 231 235 238 244 254 261 268 268 263 278 302 334 304 221 187 121 111 161 189 190 181 175 162 144 150 155 157 154 139 141 134 124 130 127 135 141 139 155 153 151 155 152 155 154 152
333 334 334 335 334 334 335 334 333 332 331 331 331 332 334 335 333 330 330 329 329 329 329 328 327 328 327 322 317 317 314 311 303 285 277 275 252 235 227 225 220 215 219 226 232 238 245 253 253 259 270 262 265 251 273 260 194 172 110 132 219 203 191 178 151 148 147 150 152 157 157 143 138 138 137 134 133 139 126 125 137 128 139 148 150 153 153 156
330 331 331 331 332 332 332 332 331 331 329 329 329 329 331 332 332 329 328 329 328 329 329 329 327 327 328 322 317 317 319 318 305 290 277 255 243 237 223 214 210 209 214 220 228 237 241 248 250 254 271 268 256 231 229 200 189 207 154 157 232 209 197 165 149 152 153 150 149 153 153 141 141 145 146 142 141 146 140 144 143 138 146 151 153 154 155 161
328 328 328 328 329 329 328 329 329 328 328 327 326 327 327 328 329 327 327 327 327 328 329 330 327 326 328 323 317 317 325 323 306 288 250 243 260 252 231 214 206 205 208 215 224 229 233 242 249 258 280 280 255 235 215 175 193 216 174 202 217 182 193 165 155 155 152 151 148 144 140 139 146 147 147 141 135 155 170 163 158 154 154 155 158 158 161 167
325 324 326 325 326 326 325 326 326 326 325 325 325 324 325 326 326 325 325 325 326 326 327 330 327 326 327 323 317 317 331 334 307 151 201 291 292 260 236 214 205 201 203 212 221 227 232 238 249 258 262 277 297 233 218 195 197 213 208 221 195 163 184 167 155 154 151 149 143 138 139 148 151 149 153 150 147 188 182 172 164 159 159 160 161 161 165 169
322 322 322 322 323 323 322 323 323 324 323 323 323 322 323 323 323 323 322 323 324 324 326 329 327 326 326 324 316 316 328 287 265 324 273 285 293 266 233 209 202 198 200 210 218 225 231 232 233 223 164 242 292 237 245 241 216 231 235 218 183 171 171 154 152 151 149 143 140 144 148 150 147 151 163 160 167 179 175 171 164 161 161 162 162 163 167 171
319 319 319 320 320 319 320 320 320 320 321 321 321 321 321 321 321 320 319 321 322 323 325 325 326 326 326 324 318 313 290 267 284 301 266 267 286 269 223 201 197 196 198 207 215 220 223 212 177 172 98 96 282 250 285 315 274 219 229 191 171 170 156 148 151 151 146 139 140 145 146 150 147 154 169 169 165 164 165 166 162 161 161 162 165 168 171 174
317 317 317 317 317 317 317 316 317 317 318 319 318 319 319 320 320 317 317 318 319 321 322 323 324 324 325 324 322 315 287 278 291 280 242 244 267 274 211 195 193 195 199 206 213 219 214 183 177 187 107 148 286 275 340 341 317 199 191 152 144 148 144 146 147 143 135 129 136 140 144 155 152 150 159 158 154 158 159 160 159 159 161 164 168 171 175 177
317 316 316 316 315 315 314 314 314 314 315 315 316 316 317 319 318 316 314 314 317 318 319 320 320 321 323 322 326 317 289 278 296 278 234 211 219 286 209 195 192 193 200 207 213 221 213 180 192 191 192 285 278 284 20 16 325 192 150 136 125 132 138 140 139 135 130 131 137 133 130 143 144 138 127 150 155 158 157 157 159 160 163 167 170 174 178 179
317 315 315 314 313 313 313 312 312 311 311 311 312 313 315 316 316 314 312 312 314 314 316 316 316 318 315 315 324 306 281 275 301 298 228 205 194 193 211 199 199 197 201 210 215 221 210 170 166 169 298 294 286 326 2 358 256 159 133 128 129 133 137 136 134 131 128 135 137 131 123 137 143 137 116 156 158 158 156 156 161 163 165 169 173 176 179 182
317 316 315 314 313 312 311 311 310 309 308 308 309 310 312 314 313 312 311 312 310 311 313 312 312 311 305 305 285 252 272 275 291 302 229 206 191 193 214 208 214 210 210 215 219 223 214 187 173 185 309 333 340 335 335 347 18 133 126 112 125 128 132 133 130 131 126 130 135 127 115 130 142 146 151 158 159 159 157 157 164 166 169 172 176 179 182 185
317 317 316 315 314 312 310 310 308 308 306 305 306 307 310 312 311 310 310 311 309 309 309 308 308 304 302 293 269 265 283 278 280 281 237 204 197 204 219 230 234 227 226 228 229 229 224 222 222 254 269 326 347 331 318 349 35 142 126 107 124 114 126 137 133 139 130 131 135 122 100 120 152 154 153 157 159 161 158 160 166 168 172 175 180 183 186 189
318 317 317 317 315 314 312 310 308 307 305 303 304 306 308 309 310 309 309 310 309 308 306 305 302 298 297 281 275 285 293 278 268 256 223 206 206 207 220 234 241 241 245 243 241 238 233 239 242 254 269 300 324 300 311 345 70 160 129 119 133 103 141 159 143 142 131 146 144 125 109 215 242 154 154 158 159 160 160 163 168 170 174 179 184 187 191 194
319 318 318 317 317 316 313 311 310 307 305 303 303 306 308 308 309 307 308 310 308 306 302 299 297 294 285 278 287 297 289 268 251 235 210 210 212 207 220 231 236 239 245 241 234 236 236 244 249 258 274 275 270 307 322 1 92 178 123 121 135 125 176 213 167 141 128 163 157 121 134 203 217 161 159 162 162 161 163 168 171 173 177 182 187 190 195 198
320 319 318 317 317 316 315 314 312 309 307 304 304 308 308 307 309 307 307 310 309 307 302 298 294 289 281 284 293 295 271 248 234 224 210 216 221 214 221 229 234 233 232 225 214 220 228 240 246 253 278 276 278 336 358 11 87 176 144 133 176 149 170 223 212 158 142 180 188 110 117 190 182 171 166 166 167 165 167 173 175 177 182 186 190 194 198 200
321 321 319 318 317 317 316 315 314 313 310 308 309 310 310 310 311 310 312 319 325 325 318 304 292 287 284 287 296 300 259 236 223 222 220 227 232 228 224 234 237 223 213 204 197 209 214 231 247 249 253 252 255 92 50 9 109 204 178 164 193 164 161 196 230 202 160 166 205 118 132 170 172 178 174 169 171 170 171 176 179 182 186 190 194 196 199 200
322 322 320 320 318 318 318 316 316 315 313 313 311 311 316 317 315 317 326 342 342 337 326 302 290 290 271 269 287 311 317 272 246 239 234 235 240 241 234 237 232 209 195 190 199 215 213 218 230 245 245 193 131 113 75 357 206 236 216 171 199 166 159 172 208 231 182 156 173 131 146 170 171 176 177 176 176 173 175 178 181 185 188 193 196 198 200 200
322 321 321 320 319 320 319 318 317 315 316 316 315 318 323 319 317 322 324 331 334 332 316 291 283 299 270 268 283 287 313 319 302 284 269 254 242 237 234 232 216 195 188 196 216 213 204 210 181 177 293 107 119 126 144 222 194 206 205 173 193 173 171 182 178 198 190 164 158 139 149 170 161 172 180 181 179 177 180 180 183 187 189 193 196 198 200 200
320 320 320 320 319 320 319 319 317 317 318 316 318 324 326 322 322 319 310 321 325 315 298 271 244 268 280 283 279 275 296 307 301 284 284 276 243 226 223 224 211 193 175 171 219 197 181 181 134 161 209 194 181 160 181 213 186 187 217 179 165 175 186 190 172 168 171 160 157 157 159 166 165 177 185 184 183 184 183 183 184 188 190 192 194 198 198 199
319 319 319 318 319 319 319 320 318 319 320 317 325 334 345 350 345 331 321 316 308 297 292 278 266 264 273 279 276 283 298 299 293 274 275 286 250 222 215 218 211 193 169 150 194 185 168 171 204 190 195 197 198 192 190 196 171 158 206 242 185 174 190 195 177 173 165 152 181 177 160 166 173 181 186 183 185 187 185 186 188 188 190 192 193 197 198 201
319 318 318 317 317 318 319 319 318 320 320 320 333 353 20 16 7 324 322 313 304 302 295 289 282 269 270 274 272 282 294 294 289 271 258 271 254 222 209 209 194 192 197 170 166 174 164 178 224 209 194 194 206 207 182 161 160 161 172 229 230 189 189 189 173 175 167 149 179 175 159 177 180 182 186 182 184 192 188 187 190 191 191 192 194 197 199 201
319 318 317 316 315 317 318 318 317 319 319 321 339 7 34 23 9 312 309 299 298 300 294 292 284 271 270 269 269 273 270 271 280 266 245 248 241 215 196 188 174 197 209 166 153 185 180 208 228 213 179 187 217 201 168 179 181 176 162 139 247 260 194 129 168 172 168 152 171 169 169 188 189 184 186 186 191 196 192 190 192 191 191 193 195 196 197 198
319 319 317 316 314 316 318 316 315 317 319 325 337 3 20 359 352 320 294 269 292 296 287 282 273 268 268 263 263 258 228 228 257 255 239 228 218 203 188 169 173 195 191 173 177 180 194 236 230 197 150 176 221 182 157 185 186 173 160 138 183 246 201 208 178 169 165 134 153 154 160 198 197 195 201 200 201 201 197 196 194 193 193 195 198 197 195 195
320 320 317 316 313 314 318 315 314 315 320 330 330 334 2 341 339 331 312 265 284 289 283 281 269 259 258 257 255 232 210 219 237 248 237 215 204 199 194 177 167 193 209 186 179 186 222 247 224 148 149 181 208 189 159 169 215 216 181 166 167 190 223 244 157 154 102 30 116 116 80 311 219 205 219 210 211 212 204 199 199 198 199 199 199 198 196 196
320 320 317 317 314 313 317 315 313 312 316 322 312 293 341 333 327 330 324 286 282 284 289 285 260 252 252 248 237 213 206 221 232 239 230 217 208 192 187 188 174 201 216 177 166 195 237 245 223 145 164 184 197 208 180 170 197 268 216 194 180 185 214 201 131 140 94 8 184 136 134 276 251 215 218 211 214 218 205 199 204 204 203 203 200 200 199 198
320 320 319 318 316 314 316 314 309 310 318 319 293 306 320 313 317 321 342 14 297 272 293 268 237 257 252 224 208 196 194 236 234 232 229 228 220 200 185 184 172 199 196 164 168 198 227 228 208 196 197 180 197 220 201 168 147 267 237 198 192 203 205 168 144 154 149 200 202 170 174 239 260 228 220 214 218 220 211 205 207 206 204 203 202 202 201 199
319 320 319 318 318 317 315 312 307 310 319 314 295 303 294 293 309 299 11 15 305 254 177 203 213 269 285 213 188 172 158 237 229 232 233 232 215 202 200 192 166 196 175 147 211 219 193 205 204 207 203 183 203 225 199 156 131 231 224 170 190 217 210 177 160 180 187 129 161 187 167 110 221 229 207 203 223 228 227 222 213 208 206 205 205 205 202 200
318 320 319 315 315 315 310 305 305 312 314 300 297 298 288 292 282 213 68 4 283 267 201 217 232 255 292 199 180 171 163 191 197 224 228 230 209 193 195 196 172 190 189 165 218 251 187 199 209 197 198 205 210 210 183 153 148 241 216 159 187 212 206 186 176 195 186 105 148 213 172 117 244 255 179 188 219 230 230 227 218 209 205 206 206 206 205 203
317 319 317 311 309 306 301 299 302 309 305 294 295 295 294 286 253 105 79 277 290 306 255 258 275 254 232 168 182 186 184 190 194 203 210 215 207 195 195 202 179 185 213 181 204 249 217 203 203 183 192 215 216 208 169 155 188 240 207 141 156 199 201 189 183 189 147 130 189 204 189 185 257 267 161 177 216 229 230 227 220 211 206 206 207 207 207 204
315 318 315 307 305 301 294 294 299 304 299 293 295 297 296 261 155 93 141 253 305 288 277 318 331 297 163 148 199 205 192 217 226 184 189 196 197 197 198 200 188 171 223 208 200 228 253 246 221 180 193 200 212 216 173 174 204 226 192 102 73 25 159 142 144 116 128 195 216 202 193 189 232 256 188 184 208 217 220 223 219 211 207 208 208 208 207 205
314 315 311 303 302 298 291 292 302 297 285 291 301 308 298 216 98 121 207 257 303 277 309 339 342 2 24 185 231 216 197 233 207 168 176 184 189 196 184 189 189 159 217 241 242 250 254 255 253 214 211 193 194 222 187 185 199 193 151 127 108 334 20 34 6 64 164 226 235 208 197 189 216 246 214 207 213 215 214 215 211 203 205 208 208 209 207 206
313 311 305 299 295 290 287 293 299 282 275 286 301 315 107 155 75 190 220 340 323 259 4 330 320 1 341 305 272 218 206 216 190 164 171 168 177 199 184 180 179 173 222 224 237 271 239 242 262 269 246 205 178 226 228 193 162 153 149 124 142 277 13 55 251 165 203 239 242 197 183 194 231 238 216 212 218 220 217 218 213 200 200 206 207 208 207 206
313 308 301 294 289 285 285 293 286 272 273 271 285 330 86 146 221 216 219 279 247 218 57 328 327 346 343 334 309 244 230 219 197 177 184 172 170 198 208 205 175 166 198 204 200 227 237 264 259 249 259 214 182 194 226 214 159 160 167 155 162 164 127 204 230 267 242 254 260 188 168 200 270 264 221 208 217 221 217 219 218 204 199 205 207 207 206 205
311 309 302 293 290 289 291 288 266 255 252 236 239 31 124 196 229 217 216 231 257 319 358 346 337 336 337 329 264 225 216 241 210 172 180 169 167 201 217 226 192 165 154 170 193 189 194 243 236 220 229 198 189 196 190 181 179 182 166 154 168 165 163 197 205 200 218 237 264 121 155 189 207 231 215 203 219 222 217 221 221 206 202 206 208 205 203 204
312 310 302 299 299 297 292 272 245 232 218 196 154 131 193 217 227 206 223 229 265 314 314 330 334 318 316 295 257 224 201 239 212 160 180 175 178 196 199 211 208 176 152 175 214 186 191 235 244 231 227 199 198 204 177 170 219 217 142 130 182 187 175 186 195 192 188 205 224 138 195 216 209 252 263 219 228 225 218 225 221 203 203 206 205 203 202 204
314 310 306 308 307 303 292 256 229 213 196 171 136 208 213 225 208 186 209 195 185 252 309 338 321 280 301 296 311 343 286 252 203 162 215 205 195 197 194 204 199 186 173 180 216 179 178 246 266 238 238 225 210 202 176 177 202 190 147 182 215 179 155 154 223 234 109 167 234 189 212 264 273 285 313 319 234 209 203 216 213 202 201 201 202 201 202 205
319 318 317 319 310 307 304 263 220 199 184 165 166 218 212 237 220 205 249 304 285 107 69 25 300 279 297 292 310 348 347 316 260 196 228 234 220 204 201 212 195 190 186 176 213 212 159 256 279 213 230 242 220 214 216 191 179 177 205 204 185 129 114 123 164 12 77 183 248 196 193 212 180 235 300 349 177 190 190 198 205 203 197 198 203 201 202 206
325 325 324 322 314 311 309 269 208 186 174 165 208 226 208 229 223 211 273 324 343 14 53 108 259 275 261 279 300 323 351 334 299 280 239 228 243 208 195 205 198 194 193 184 205 241 164 243 292 217 213 245 216 205 240 228 200 204 221 180 147 161 226 148 165 178 160 204 254 260 227 204 187 215 249 218 189 194 195 193 196 195 194 202 204 201 203 206
329 328 325 325 323 320 309 226 186 173 163 163 210 219 217 227 253 260 270 301 324 305 303 229 215 261 271 273 290 308 330 286 272 298 254 215 248 221 194 194 201 194 192 187 192 216 158 195 276 255 218 245 176 170 221 239 226 185 123 160 152 167 181 181 171 166 175 199 222 264 286 243 224 212 199 208 204 190 187 189 191 194 199 203 201 200 203 205
335 330 329 337 339 352 120 156 166 166 165 194 197 207 237 238 262 264 262 269 254 232 252 217 214 250 271 269 265 277 285 251 242 264 251 225 257 253 208 195 197 191 190 189 189 189 165 183 237 269 271 264 240 202 204 212 207 185 193 214 199 131 143 178 185 140 147 163 176 208 252 259 251 209 186 208 211 191 183 185 193 200 199 199 199 200 204 206
346 340 348 15 56 93 103 138 165 174 198 218 209 215 242 246 261 280 276 270 246 234 245 239 240 251 267 272 259 234 262 276 250 239 261 243 230 251 223 205 200 183 177 187 196 193 185 184 212 249 264 240 241 234 202 194 197 190 195 205 189 158 130 155 236 260 123 150 167 171 225 263 257 205 197 212 205 192 193 190 192 192 189 192 199 203 205 207
354 332 288 6 77 92 12 320 235 232 199 222 243 224 237 256 247 265 279 277 255 229 236 237 241 250 255 259 254 238 249 279 272 247 247 242 227 224 225 215 208 191 164 181 205 193 163 151 197 234 245 235 244 247 216 201 205 208 220 210 178 152 137 153 203 236 207 179 130 124 207 265 261 215 214 227 211 192 192 189 184 183 186 192 198 202 205 208
341 313 297 311 270 249 274 306 268 250 234 257 276 265 260 257 238 251 266 271 255 229 232 225 224 233 232 237 250 250 245 253 257 252 250 252 243 236 229 217 210 200 170 178 201 188 165 141 180 227 261 269 265 269 262 213 184 213 261 232 172 173 168 160 174 178 178 193 136 116 237 263 276 260 233 230 212 183 182 185 184 184 188 193 196 200 204 208
327 310 299 354 289 222 213 244 255 243 259 274 283 281 268 256 250 256 245 228 222 219 239 237 223 227 228 239 260 265 277 262 254 269 266 260 262 254 237 220 210 200 181 189 182 170 187 182 160 196 243 266 273 278 285 287 175 189 235 223 203 192 165 141 128 138 189 211 160 152 225 251 275 294 298 184 178 175 182 186 187 187 188 192 195 199 203 208
331 312 292 333 355 200 205 353 354 264 289 308 300 281 271 262 246 243 241 238 234 229 242 248 239 238 238 255 280 281 287 269 268 299 287 276 296 290 265 233 216 202 202 199 176 162 180 192 166 185 212 223 230 230 231 241 215 202 202 202 209 191 170 161 133 151 216 229 152 157 210 251 281 299 329 221 182 180 190 186 187 190 190 193 195 198 202 206
337 319 307 329 346 221 229 39 44 9 337 358 328 264 247 254 253 256 254 245 239 235 235 241 247 255 248 237 262 276 277 272 289 316 302 292 288 305 320 298 234 213 234 218 168 155 163 178 181 191 206 211 212 220 217 166 156 211 212 201 207 199 185 167 131 169 194 165 167 213 200 199 258 243 205 229 213 194 192 183 186 193 195 196 197 199 201 204
314 317 359 339 332 340 351 33 39 19 312 307 305 261 260 263 273 283 276 256 245 237 230 233 232 236 234 220 222 243 255 278 318 313 295 294 284 289 321 333 317 242 253 207 164 153 96 189 198 196 207 215 213 218 220 173 172 214 217 207 206 199 186 172 175 189 161 138 217 253 200 173 212 220 204 214 218 209 204 191 191 195 196 196 196 197 199 202
278 320 12 3 311 320 3 337 341 332 293 282 270 247 264 269 283 296 290 295 276 247 228 235 228 235 238 219 189 186 206 269 321 300 282 286 310 325 327 328 333 331 322 181 167 160 139 209 212 196 212 223 218 222 227 213 206 218 214 215 211 191 181 188 199 184 154 164 214 223 187 185 200 204 204 205 201 200 202 197 194 194 193 191 191 194 199 203
288 305 327 339 308 278 285 296 304 304 292 287 267 247 263 279 299 306 299 314 303 262 222 243 267 284 271 228 185 172 175 174 238 266 261 285 304 323 335 299 284 338 360 5 180 144 160 216 207 188 217 230 219 224 231 225 229 236 228 226 218 196 191 195 195 177 170 190 200 175 180 199 205 200 205 207 201 196 192 185 182 185 188 189 190 194 200 204
344 315 323 334 315 284 282 286 294 301 297 290 255 259 308 300 306 326 315 288 282 287 311 299 288 304 304 261 189 176 180 174 190 224 235 287 315 287 280 277 277 328 354 341 332 35 159 231 205 170 210 239 224 223 229 225 228 238 241 237 216 193 202 203 180 153 175 223 228 159 181 208 225 207 192 189 180 165 159 168 176 184 187 188 191 195 199 201
349 277 303 327 301 277 286 295 304 300 286 279 266 316 339 320 316 328 309 268 256 273 308 301 285 297 320 312 165 150 173 191 193 215 235 244 256 260 258 247 261 316 342 317 306 21 133 254 247 140 183 238 228 222 229 227 226 240 250 248 216 181 193 205 179 166 176 169 99 111 183 216 228 174 121 135 152 155 169 181 184 187 187 187 190 194 197 199
360 228 260 327 290 281 314 322 302 284 265 305 348 339 319 302 309 316 305 296 316 335 333 315 295 311 317 297 300 323 305 285 256 241 251 261 262 259 258 260 259 262 273 294 299 243 138 162 245 153 173 238 239 218 213 202 207 247 249 231 204 183 170 151 128 177 174 151 137 154 213 220 196 147 145 160 171 178 191 192 187 186 187 188 191 194 196 199
Height
1525 1524 1523 1521 1520 1519 1518 1517 1515 1514 1512 1511 1510 1508 1507 1505 1503 1501 1500 1498 1497 1496 1495 1494 1492 1491 1489 1487 1486 1485 1484 1482 1481 1479 1476 1475 1476 1477 1476 1478 1480 1481 1481 1482 1482 1483 1484 1485 1486 1487 1487 1488 1489 1488 1489 1489 1489 1491 1496 1505 1509 1509 1508 1502 1503 1504 1503 1507 1508 1510 1509 1508 1514 1517 1518 1521 1522 1522 1525 1526 1527 1528 1528 1530 1532 1533 1535 1537
1524 1522 1521 1520 1519 1518 1517 1516 1514 1513 1511 1510 1509 1507 1506 1504 1503 1501 1499 1497 1496 1495 1494 1493 1491 1490 1488 1487 1485 1483 1482 1480 1478 1475 1472 1473 1474 1473 1473 1475 1477 1479 1479 1480 1481 1482 1483 1485 1485 1486 1487 1487 1487 1487 1488 1488 1488 1491 1497 1506 1507 1503 1498 1493 1495 1496 1498 1503 1506 1508 1509 1507 1510 1514 1517 1521 1524 1525 1525 1527 1529 1529 1530 1532 1534 1535 1537 1538
1523 1521 1520 1519 1518 1517 1516 1514 1513 1512 1510 1509 1507 1506 1505 1503 1502 1500 1498 1496 1495 1494 1493 1492 1490 1489 1487 1486 1484 1482 1480 1478 1475 1471 1470 1471 1471 1470 1471 1472 1474 1476 1478 1479 1480 1481 1482 1483 1484 1485 1486 1486 1487 1488 1488 1488 1488 1488 1495 1505 1502 1494 1492 1490 1492 1493 1495 1499 1502 1508 1509 1508 1510 1512 1516 1519 1523 1525 1524 1525 1527 1529 1530 1532 1534 1535 1537 1538
1522 1520 1519 1518 1517 1515 1514 1513 1512 1511 1509 1508 1506 1505 1504 1502 1501 1499 1498 1495 1494 1492 1491 1490 1489 1488 1486 1484 1483 1481 1479 1477 1471 1468 1469 1469 1469 1469 1469 1470 1472 1474 1476 1477 1478 1479 1480 1482 1483 1484 1485 1486 1486 1488 1488 1488 1489 1488 1492 1497 1492 1488 1492 1490 1490 1493 1494 1497 1501 1506 1509 1511 1512 1512 1515 1517 1523 1527 1524 1522 1521 1524 1528 1529 1532 1535 1536 1538
1521 1519 1518 1517 1515 1514 1513 1512 1511 1509 1508 1506 1505 1504 1502 1501 1500 1498 1497 1495 1493 1491 1490 1489 1488 1487 1485 1483 1482 1480 1481 1480 1471 1467 1469 1468 1468 1468 1467 1469 1471 1473 1474 1476 1477 1478 1479 1481 1482 1483 1485 1485 1486 1488 1487 1485 1486 1488 1487 1485 1483 1485 1490 1489 1489 1493 1495 1498 1501 1504 1507 1511 1512 1513 1513 1513 1519 1521 1520 1521 1521 1522 1526 1529 1531 1534 1536 1537
1520 1518 1517 1515 1514 1513 1511 1510 1509 1508 1507 1505 1504 1502 1501 1500 1498 1497 1495 1494 1492 1490 1489 1488 1486 1485 1484 1483 1481 1480 1482 1480 1470 1467 1469 1467 1467 1466 1466 1467 1469 1471 1473 1474 1475 1476 1478 1480 1482 1483 1484 1485 1487 1487 1485 1483 1484 1488 1485 1479 1480 1483 1486 1487 1489 1493 1494 1497 1500 1502 1505 1508 1511 1513 1513 1512 1512 1513 1516 1521 1522 1523 1526 1529 1532 1534 1536 1537
1519 1517 1516 1514 1513 1511 1510 1509 1508 1506 1505 1504 1502 1501 1500 1498 1497 1495 1494 1493 1491 1489 1487 1486 1485 1484 1483 1482 1480 1479 1479 1474 1467 1468 1467 1465 1466 1464 1465 1466 1468 1470 1471 1472 1473 1475 1477 1479 1481 1481 1483 1486 1485 1484 1484 1482 1480 1485 1484 1478 1479 1481 1483 1486 1489 1492 1494 1496 1499 1501 1505 1506 1508 1513 1515 1515 1513 1514 1518 1522 1524 1526 1528 1530 1533 1534 1536 1537
1517 1516 1514 1513 1511 1510 1509 1507 1506 1505 1504 1502 1501 1499 1498 1497 1495 1494 1492 1491 1490 1488 1486 1485 1484 1482 1482 1481 1479 1478 1475 1469 1466 1467 1465 1465 1465 1464 1464 1465 1467 1469 1469 1471 1471 1474 1476 1478 1480 1480 1483 1485 1483 1483 1482 1481 1478 1480 1482 1479 1479 1481 1483 1486 1488 1492 1494 1496 1499 1502 1505 1506 1507 1510 1514 1516 1516 1517 1519 1523 1525 1527 1530 1531 1532 1534 1536 1537
1516 1515 1513 1512 1510 1509 1507 1506 1504 1503 1502 1500 1499 1498 1496 1495 1494 1492 1491 1490 1488 1487 1485 1484 1482 1481 1480 1479 1479 1477 1470 1466 1466 1466 1465 1464 1464 1464 1465 1465 1466 1468 1469 1470 1471 1473 1476 1478 1480 1480 1483 1482 1482 1482 1480 1484 1483 1478 1479 1478 1479 1482 1484 1486 1489 1491 1493 1496 1498 1502 1506 1508 1508 1510 1516 1518 1517 1518 1519 1523 1526 1527 1530 1532 1533 1534 1535 1537
1515 1513 1512 1510 1509 1507 1506 1504 1503 1501 1500 1498 1497 1496 1495 1493 1492 1490 1489 1488 1487 1485 1484 1483 1481 1479 1479 1477 1479 1477 1467 1465 1466 1465 1464 1464 1464 1464 1465 1466 1467 1467 1468 1470 1471 1472 1475 1478 1479 1479 1481 1480 1481 1481 1479 1484 1482 1477 1477 1478 1479 1483 1484 1486 1489 1491 1493 1496 1497 1501 1508 1509 1509 1511 1518 1520 1518 1519 1520 1523 1526 1528 1530 1532 1534 1535 1536 1537
1513 1512 1510 1509 1507 1506 1504 1503 1501 1500 1498 1496 1495 1494 1493 1492 1490 1488 1487 1486 1485 1484 1482 1481 1479 1478 1477 1476 1477 1474 1466 1464 1465 1464 1464 1463 1464 1465 1466 1467 1467 1468 1469 1469 1470 1473 1475 1478 1478 1479 1481 1480 1480 1480 1479 1480 1478 1477 1478 1483 1485 1484 1487 1487 1489 1492 1493 1498 1498 1499 1507 1510 1510 1512 1515 1517 1519 1520 1520 1523 1526 1528 1530 1532 1534 1535 1536 1537
1511 1510 1508 1507 1506 1504 1503 1501 1499 1498 1496 1494 1493 1492 1491 1490 1488 1486 1485 1484 1483 1482 1480 1479 1478 1476 1475 1474 1471 1467 1464 1464 1463 1462 1463 1462 1463 1464 1465 1466 1467 1468 1469 1470 1471 1473 1476 1477 1478 1479 1480 1480 1481 1482 1481 1478 1479 1480 1478 1488 1494 1489 1492 1490 1488 1491 1491 1499 1499 1498 1512 1517 1513 1514 1513 1514 1518 1520 1521 1523 1526 1528 1530 1532 1533 1535 1536 1537
1509 1508 1506 1505 1504 1502 1501 1499 1497 1496 1494 1492 1491 1490 1489 1487 1486 1484 1483 1482 1481 1479 1478 1477 1476 1474 1473 1469 1463 1463 1464 1463 1461 1461 1462 1462 1463 1463 1464 1465 1466 1467 1469 1470 1472 1474 1476 1477 1477 1478 1479 1480 1482 1483 1481 1478 1481 1486 1481 1487 1499 1501 1503 1494 1489 1492 1491 1497 1495 1497 1520 1526 1516 1513 1513 1515 1517 1520 1523 1524 1526 1528 1530 1531 1533 1534 1535 1537
1508 1506 1505 1503 1502 1501 1499 1497 1496 1494 1492 1490 1489 1489 1487 1485 1484 1482 1481 1479 1478 1477 1475 1474 1473 1472 1471 1464 1459 1461 1462 1460 1460 1460 1461 1462 1462 1462 1463 1463 1464 1466 1468 1470 1472 1474 1475 1476 1477 1477 1478 1480 1480 1480 1481 1480 1484 1492 1490 1490 1499 1509 1510 1497 1491 1493 1495 1500 1493 1496 1520 1525 1516 1514 1513 1515 1517 1518 1522 1523 1525 1527 1529 1530 1531 1533 1534 1535
1507 1505 1503 1502 1500 1499 1497 1496 1494 1492 1490 1488 1487 1487 1485 1483 1482 1480 1479 1477 1476 1474 1472 1472 1471 1471 1469 1461 1457 1459 1458 1458 1459 1459 1462 1462 1462 1463 1462 1463 1464 1465 1467 1469 1471 1474 1474 1475 1476 1476 1477 1478 1478 1481 1486 1488 1489 1493 1501 1504 1503 1506 1509 1499 1492 1491 1493 1499 1493 1498 1519 1522 1516 1514 1512 1514 1516 1517 1520 1522 1524 1526 1527 1529 1529 1531 1532 1533
1506 1505 1503 1501 1499 1497 1496 1494 1492 1490 1489 1487 1485 1485 1483 1481 1479 1478 1476 1474 1474 1472 1471 1470 1469 1470 1468 1460 1456 1458 1457 1458 1459 1460 1461 1461 1461 1462 1462 1463 1463 1464 1466 1468 1471 1473 1474 1474 1474 1475 1477 1478 1479 1484 1492 1496 1497 1495 1501 1509 1506 1504 1509 1504 1496 1488 1486 1492 1494 1499 1514 1520 1514 1511 1512 1512 1514 1516 1518 1520 1522 1524 1525 1526 1528 1529 1530 1532
1505 1503 1501 1500 1498 1496 1494 1492 1490 1488 1487 1485 1484 1482 1481 1479 1477 1476 1474 1473 1472 1471 1470 1470 1469 1469 1464 1457 1456 1457 1457 1458 1459 1460 1460 1461 1461 1461 1462 1462 1462 1464 1466 1468 1470 1471 1473 1473 1474 1476 1476 1478 1479 1485 1498 1506 1505 1501 1501 1504 1503 1501 1505 1506 1500 1492 1487 1490 1496 1499 1507 1513 1509 1507 1510 1511 1512 1515 1516 1518 1520 1521 1523 1524 1525 1527 1528 1529
1502 1501 1500 1498 1497 1495 1493 1491 1488 1486 1486 1484 1482 1480 1479 1477 1475 1474 1473 1471 1471 1470 1470 1468 1469 1470 1462 1454 1455 1456 1455 1457 1457 1458 1458 1459 1460 1460 1461 1461 1462 1464 1465 1468 1469 1469 1472 1471 1473 1477 1478 1480 1482 1487 1500 1505 1501 1501 1501 1500 1501 1500 1500 1501 1498 1493 1491 1493 1498 1503 1508 1510 1508 1507 1510 1510 1512 1513 1514 1515 1517 1519 1521 1522 1524 1525 1526 1527
1500 1499 1498 1496 1495 1494 1492 1490 1487 1485 1484 1483 1482 1480 1478 1475 1473 1472 1471 1470 1470 1470 1469 1467 1468 1469 1462 1454 1453 1454 1454 1455 1455 1455 1456 1457 1458 1459 1459 1461 1462 1463 1465 1468 1469 1468 1470 1472 1475 1481 1484 1483 1483 1486 1491 1491 1491 1495 1496 1495 1498 1501 1498 1494 1491 1487 1489 1497 1501 1503 1507 1509 1509 1509 1509 1510 1511 1513 1513 1514 1515 1517 1518 1520 1521 1523 1524 1525
1499 1497 1496 1494 1494 1493 1491 1489 1486 1484 1483 1481 1480 1479 1477 1475 1473 1472 1469 1467 1467 1467 1466 1465 1464 1464 1459 1453 1452 1453 1453 1454 1454 1453 1454 1455 1457 1457 1458 1460 1461 1462 1464 1467 1469 1466 1468 1476 1480 1481 1482 1481 1480 1480 1480 1481 1485 1489 1491 1494 1494 1496 1497 1492 1489 1486 1485 1497 1504 1502 1504 1506 1507 1507 1506 1508 1511 1512 1513 1513 1513 1514 1515 1517 1518 1520 1521 1522
1497 1496 1494 1492 1492 1491 1490 1488 1485 1484 1482 1481 1480 1479 1479 1479 1478 1477 1471 1463 1461 1464 1462 1459 1461 1458 1455 1452 1450 1453 1454 1453 1451 1451 1452 1454 1455 1456 1456 1458 1461 1464 1464 1463 1466 1465 1468 1478 1478 1474 1474 1475 1475 1475 1478 1481 1484 1486 1488 1494 1496 1495 1494 1489 1487 1487 1484 1495 1505 1503 1505 1508 1505 1505 1505 1506 1509 1509 1508 1510 1511 1511 1512 1514 1515 1517 1519 1520
1496 1494 1492 1491 1489 1489 1489 1486 1485 1483 1482 1481 1481 1481 1481 1481 1482 1481 1476 1465 1455 1457 1458 1455 1455 1453 1450 1450 1449 1452 1456 1454 1450 1448 1450 1452 1453 1454 1454 1456 1461 1464 1463 1462 1467 1470 1473 1476 1471 1467 1469 1472 1474 1474 1478 1482 1483 1486 1488 1492 1498 1495 1493 1490 1487 1486 1487 1495 1505 1505 1507 1509 1505 1504 1504 1504 1503 1503 1503 1504 1506 1508 1510 1512 1512 1514 1516 1519
1494 1492 1491 1489 1487 1487 1487 1485 1484 1482 1481 1480 1480 1481 1481 1480 1480 1479 1479 1471 1454 1449 1452 1450 1449 1447 1445 1446 1445 1449 1452 1452 1450 1446 1447 1450 1450 1452 1453 1455 1460 1462 1462 1464 1468 1474 1477 1472 1463 1463 1468 1472 1475 1476 1479 1484 1484 1486 1488 1491 1497 1494 1495 1497 1493 1490 1490 1494 1502 1505 1509 1510 1508 1507 1506 1503 1502 1501 1502 1503 1504 1506 1507 1508 1508 1510 1512 1515
1492 1490 1489 1486 1485 1485 1484 1484 1482 1481 1480 1479 1479 1479 1479 1478 1479 1477 1475 1471 1456 1443 1444 1444 1442 1441 1438 1439 1442 1445 1446 1447 1447 1444 1445 1448 1448 1450 1451 1453 1458 1462 1462 1463 1466 1471 1472 1465 1458 1462 1468 1470 1475 1477 1479 1485 1487 1486 1485 1487 1491 1490 1492 1493 1492 1492 1494 1497 1500 1505 1517 1518 1511 1513 1510 1505 1504 1503 1503 1504 1505 1505 1504 1505 1507 1508 1510 1511
1490 1489 1487 1484 1483 1481 1482 1482 1480 1480 1479 1478 1479 1477 1478 1477 1476 1476 1472 1471 1461 1444 1438 1438 1436 1433 1432 1436 1439 1441 1442 1442 1442 1442 1443 1444 1446 1449 1450 1450 1456 1461 1462 1462 1465 1469 1467 1459 1458 1463 1468 1469 1473 1477 1478 1481 1486 1487 1482 1479 1482 1484 1487 1489 1491 1494 1504 1511 1502 1504 1527 1529 1513 1512 1511 1505 1505 1504 1503 1504 1503 1503 1503 1505 1507 1508 1509 1510
1489 1488 1485 1484 1481 1479 1480 1479 1479 1480 1477 1477 1478 1476 1478 1476 1475 1476 1472 1476 1468 1445 1438 1438 1435 1431 1428 1432 1434 1437 1445 1442 1437 1440 1441 1442 1444 1446 1450 1450 1452 1457 1459 1460 1464 1465 1461 1456 1457 1462 1466 1469 1473 1475 1473 1474 1484 1489 1478 1471 1475 1479 1483 1488 1491 1496 1507 1510 1497 1495 1517 1527 1517 1511 1508 1505 1506 1504 1503 1502 1500 1500 1502 1503 1505 1505 1507 1509
1488 1486 1484 1483 1480 1477 1477 1477 1478 1479 1476 1477 1476 1475 1477 1473 1475 1473 1473 1487 1476 1443 1437 1438 1434 1432 1428 1429 1430 1436 1447 1441 1434 1437 1437 1440 1442 1442 1450 1451 1451 1454 1452 1458 1466 1461 1455 1456 1458 1461 1465 1469 1473 1474 1470 1469 1482 1485 1470 1467 1475 1478 1483 1487 1488 1493 1496 1495 1497 1496 1503 1518 1519 1508 1502 1504 1507 1506 1504 1500 1497 1497 1499 1500 1501 1502 1504 1505
1486 1485 1483 1481 1480 1478 1475 1475 1477 1476 1477 1476 1473 1475 1474 1472 1475 1470 1480 1500 1474 1436 1435 1435 1429 1430 1428 1429 1429 1431 1437 1434 1434 1437 1433 1438 1441 1440 1447 1448 1450 1453 1448 1456 1467 1459 1451 1456 1458 1459 1465 1469 1469 1468 1464 1465 1476 1474 1463 1466 1472 1474 1479 1482 1485 1490 1489 1495 1511 1507 1501 1515 1518 1504 1499 1504 1507 1508 1502 1496 1493 1492 1494 1496 1498 1499 1500 1502
1485 1484 1482 1479 1479 1477 1474 1474 1474 1474 1475 1474 1473 1474 1471 1472 1472 1469 1489 1498 1461 1433 1435 1432 1429 1430 1428 1430 1430 1428 1429 1430 1433 1434 1432 1436 1439 1439 1444 1444 1445 1450 1448 1451 1460 1456 1450 1451 1452 1455 1462 1464 1461 1459 1459 1464 1469 1463 1459 1466 1470 1471 1475 1478 1484 1489 1491 1502 1516 1508 1500 1512 1516 1505 1503 1507 1508 1504 1495 1489 1487 1487 1490 1492 1493 1496 1498 1500
1483 1482 1481 1477 1475 1475 1472 1472 1473 1473 1473 1472 1473 1472 1470 1472 1470 1481 1503 1490 1454 1440 1435 1431 1432 1431 1429 1433 1433 1429 1429 1429 1429 1430 1432 1434 1436 1438 1440 1441 1442 1447 1450 1450 1453 1453 1447 1445 1446 1449 1453 1453 1452 1454 1455 1458 1459 1457 1461 1468 1472 1476 1477 1481 1485 1488 1500 1511 1509 1500 1494 1502 1512 1508 1502 1500 1494 1486 1483 1483 1482 1484 1487 1488 1489 1492 1494 1496
1480 1480 1479 1475 1473 1472 1469 1470 1472 1472 1472 1472 1471 1470 1470 1471 1473 1492 1500 1473 1451 1444 1435 1434 1436 1431 1433 1436 1435 1432 1429 1429 1428 1430 1434 1434 1437 1440 1440 1444 1446 1450 1455 1454 1454 1453 1449 1449 1447 1444 1444 1445 1449 1453 1452 1452 1453 1458 1466 1471 1479 1484 1484 1491 1493 1494 1510 1516 1500 1491 1491 1499 1509 1504 1492 1484 1474 1469 1472 1474 1474 1477 1480 1482 1484 1487 1489 1492
1477 1477 1475 1473 1471 1468 1467 1469 1470 1470 1471 1471 1471 1470 1471 1476 1482 1487 1478 1459 1454 1447 1438 1441 1438 1433 1436 1436 1435 1434 1431 1431 1428 1429 1434 1435 1440 1442 1441 1446 1448 1456 1465 1461 1458 1457 1452 1450 1446 1443 1441 1441 1449 1456 1456 1454 1455 1462 1470 1475 1487 1498 1501 1508 1508 1507 1514 1507 1490 1487 1493 1502 1503 1488 1478 1476 1469 1464 1464 1463 1463 1467 1471 1475 1478 1481 1485 1489
1475 1473 1471 1471 1468 1464 1465 1468 1468 1468 1469 1470 1471 1470 1471 1482 1484 1473 1463 1459 1452 1441 1438 1441 1436 1434 1437 1437 1437 1434 1432 1433 1428 1429 1431 1432 1440 1441 1440 1440 1440 1451 1462 1460 1460 1461 1459 1452 1444 1446 1445 1438 1445 1456 1461 1461 1460 1465 1470 1477 1489 1501 1513 1521 1518 1517 1514 1499 1485 1485 1493 1503 1500 1480 1470 1470 1463 1456 1455 1454 1456 1460 1466 1469 1471 1476 1481 1485
1471 1469 1467 1465 1464 1462 1463 1465 1465 1466 1468 1469 1471 1472 1477 1483 1474 1460 1460 1457 1445 1438 1439 1440 1437 1436 1436 1438 1438 1432 1434 1434 1427 1430 1433 1434 1442 1444 1441 1440 1438 1442 1450 1457 1460 1460 1466 1463 1447 1445 1445 1437 1440 1447 1452 1455 1458 1461 1461 1467 1479 1486 1497 1508 1509 1510 1507 1495 1489 1492 1496 1500 1493 1472 1458 1456 1453 1449 1450 1451 1453 1458 1463 1465 1468 1473 1477 1481
1467 1466 1463 1461 1461 1460 1459 1460 1461 1462 1465 1466 1469 1474 1478 1476 1465 1458 1458 1452 1446 1445 1442 1439 1440 1442 1440 1437 1433 1428 1432 1434 1428 1430 1434 1435 1440 1441 1440 1440 1438 1440 1446 1456 1459 1454 1463 1461 1442 1437 1437 1434 1438 1438 1438 1449 1458 1457 1454 1462 1471 1468 1471 1484 1491 1490 1489 1490 1493 1494 1491 1482 1472 1458 1449 1450 1450 1449 1452 1453 1455 1460 1462 1464 1468 1471 1474 1477
1463 1462 1460 1458 1457 1457 1456 1456 1456 1459 1461 1463 1469 1473 1470 1463 1457 1454 1450 1445 1446 1446 1445 1444 1443 1445 1445 1439 1434 1431 1430 1430 1430 1432 1435 1435 1435 1435 1435 1433 1432 1435 1439 1449 1454 1452 1459 1456 1438 1434 1435 1430 1434 1434 1432 1444 1455 1456 1457 1461 1460 1453 1457 1473 1485 1484 1484 1491 1492 1488 1481 1472 1468 1461 1452 1451 1452 1451 1453 1454 1455 1456 1458 1462 1465 1466 1470 1473
1460 1457 1456 1455 1454 1453 1452 1452 1453 1456 1458 1461 1466 1466 1461 1454 1450 1448 1444 1443 1444 1443 1447 1452 1447 1445 1447 1443 1438 1436 1433 1432 1432 1433 1436 1436 1433 1430 1430 1428 1426 1428 1430 1437 1445 1444 1451 1453 1439 1435 1438 1430 1426 1431 1430 1431 1440 1450 1456 1453 1449 1453 1456 1463 1478 1488 1493 1494 1487 1481 1477 1474 1476 1472 1457 1453 1455 1454 1452 1450 1450 1453 1456 1459 1460 1462 1466 1467
1458 1455 1453 1452 1451 1449 1448 1448 1450 1452 1456 1460 1462 1459 1455 1451 1446 1444 1443 1442 1443 1443 1448 1454 1449 1443 1445 1445 1442 1437 1437 1439 1437 1436 1436 1436 1431 1424 1424 1426 1423 1423 1423 1428 1437 1437 1441 1453 1444 1432 1436 1430 1422 1432 1438 1430 1428 1437 1442 1439 1445 1461 1466 1464 1474 1485 1493 1496 1486 1479 1476 1473 1473 1467 1455 1453 1454 1452 1450 1448 1448 1452 1453 1453 1455 1459 1462 1464
1458 1455 1452 1450 1448 1446 1445 1445 1448 1451 1454 1459 1461 1457 1451 1448 1444 1443 1443 1443 1444 1445 1448 1450 1447 1444 1443 1444 1443 1438 1438 1441 1440 1439 1438 1436 1430 1419 1416 1420 1419 1420 1420 1422 1432 1434 1436 1451 1450 1433 1430 1429 1427 1435 1444 1438 1432 1432 1436 1438 1441 1451 1457 1459 1464 1468 1477 1490 1488 1480 1477 1470 1461 1453 1447 1445 1446 1446 1448 1448 1447 1447 1445 1446 1450 1455 1459 1462
1459 1456 1453 1450 1447 1445 1444 1447 1449 1452 1453 1454 1455 1452 1447 1446 1444 1442 1442 1444 1444 1444 1446 1446 1445 1445 1443 1441 1441 1439 1437 1438 1437 1438 1437 1433 1429 1420 1413 1413 1415 1416 1417 1419 1425 1429 1433 1445 1450 1438 1431 1433 1435 1434 1435 1437 1438 1439 1444 1448 1445 1445 1449 1453 1457 1458 1462 1475 1483 1481 1478 1465 1448 1441 1439 1436 1437 1440 1441 1441 1441 1440 1440 1444 1449 1453 1456 1458
1460 1458 1455 1451 1449 1447 1448 1451 1451 1451 1451 1450 1449 1448 1446 1444 1443 1441 1441 1442 1442 1441 1442 1442 1442 1443 1441 1440 1440 1438 1436 1435 1434 1435 1434 1429 1428 1423 1413 1408 1409 1411 1416 1422 1424 1426 1432 1439 1444 1442 1438 1439 1435 1426 1423 1426 1430 1434 1439 1442 1442 1442 1448 1456 1463 1460 1454 1461 1469 1473 1474 1459 1439 1434 1433 1430 1432 1434 1434 1434 1436 1437 1440 1444 1447 1449 1452 1455
1462 1460 1456 1453 1453 1451 1452 1453 1451 1450 1449 1448 1446 1444 1443 1442 1441 1441 1440 1440 1440 1439 1438 1439 1439 1439 1439 1438 1437 1437 1437 1435 1432 1433 1431 1425 1422 1418 1408 1403 1403 1404 1411 1421 1420 1417 1422 1431 1440 1441 1437 1434 1427 1419 1419 1420 1421 1425 1428 1429 1432 1435 1441 1453 1462 1459 1454 1458 1462 1466 1469 1454 1434 1430 1430 1428 1428 1429 1430 1432 1433 1436 1438 1439 1442 1446 1449 1451
1462 1459 1454 1453 1454 1453 1454 1454 1451 1449 1448 1445 1442 1441 1441 1441 1440 1440 1439 1440 1439 1438 1437 1436 1435 1435 1434 1433 1433 1434 1434 1432 1429 1427 1426 1421 1414 1406 1400 1399 1399 1400 1406 1414 1416 1414 1418 1427 1437 1439 1432 1426 1420 1415 1415 1416 1420 1427 1427 1424 1427 1429 1430 1436 1444 1446 1451 1457 1459 1466 1472 1454 1432 1429 1429 1426 1426 1427 1428 1431 1432 1434 1436 1438 1441 1443 1446 1449
1461 1457 1452 1452 1452 1451 1453 1454 1451 1448 1446 1443 1442 1441 1440 1439 1439 1438 1438 1439 1437 1435 1435 1433 1431 1431 1429 1429 1430 1430 1430 1431 1427 1422 1420 1419 1409 1398 1394 1393 1395 1398 1400 1405 1407 1411 1420 1426 1432 1441 1445 1440 1434 1429 1425 1421 1422 1426 1426 1423 1422 1423 1424 1430 1436 1441 1448 1452 1452 1460 1467 1451 1432 1429 1428 1425 1426 1427 1427 1429 1430 1433 1435 1437 1439 1441 1443 1446
1461 1456 1451 1451 1451 1450 1451 1451 1449 1448 1446 1445 1444 1442 1440 1438 1436 1435 1435 1434 1432 1432 1432 1429 1427 1427 1425 1426 1429 1427 1426 1428 1427 1420 1417 1414 1405 1395 1391 1390 1391 1392 1392 1392 1393 1400 1414 1421 1423 1436 1451 1453 1448 1440 1432 1426 1424 1423 1421 1420 1420 1420 1423 1429 1436 1442 1447 1450 1449 1450 1452 1443 1433 1430 1428 1426 1427 1427 1427 1429 1430 1432 1433 1435 1436 1438 1440 1443
1464 1459 1453 1450 1449 1449 1450 1449 1450 1450 1449 1449 1446 1441 1440 1438 1434 1432 1431 1430 1428 1427 1428 1426 1425 1425 1425 1425 1429 1430 1425 1423 1424 1422 1418 1413 1406 1397 1392 1390 1389 1389 1389 1391 1392 1396 1407 1414 1415 1422 1431 1435 1434 1427 1421 1420 1422 1422 1420 1418 1419 1419 1419 1423 1433 1439 1441 1447 1449 1443 1439 1438 1435 1431 1428 1428 1428 1427 1426 1427 1428 1429 1430 1431 1433 1435 1438 1441
1466 1462 1459 1457 1453 1450 1450 1449 1450 1452 1451 1452 1448 1441 1439 1438 1434 1431 1429 1427 1425 1423 1423 1422 1422 1424 1424 1423 1427 1429 1425 1421 1422 1422 1419 1414 1407 1399 1394 1391 1390 1390 1389 1389 1392 1398 1408 1413 1412 1413 1415 1415 1415 1414 1412 1415 1418 1417 1417 1415 1415 1417 1419 1423 1428 1430 1432 1443 1448 1440 1434 1436 1433 1428 1427 1427 1427 1426 1424 1423 1423 1423 1426 1428 1432 1435 1438 1441
1465 1463 1461 1462 1459 1455 1453 1451 1451 1452 1451 1451 1448 1441 1438 1437 1435 1433 1430 1425 1422 1421 1421 1420 1419 1419 1418 1417 1421 1424 1424 1423 1424 1422 1418 1414 1410 1406 1400 1395 1393 1391 1388 1388 1389 1394 1406 1411 1409 1411 1411 1408 1408 1407 1407 1412 1414 1412 1413 1414 1412 1414 1419 1420 1420 1420 1423 1431 1434 1430 1432 1433 1426 1422 1422 1419 1418 1418 1417 1417 1418 1420 1424 1428 1432 1435 1437 1439
1465 1464 1461 1462 1461 1458 1455 1453 1452 1451 1449 1448 1445 1440 1437 1436 1435 1433 1430 1428 1424 1419 1419 1421 1419 1416 1414 1411 1413 1419 1420 1421 1424 1423 1418 1415 1413 1412 1409 1403 1396 1391 1389 1391 1389 1390 1400 1406 1405 1408 1411 1407 1406 1406 1404 1408 1412 1411 1411 1411 1410 1412 1414 1412 1413 1416 1416 1418 1418 1420 1427 1427 1419 1414 1413 1410 1410 1411 1412 1414 1417 1420 1424 1427 1430 1433 1434 1436
1467 1466 1464 1462 1461 1457 1455 1453 1452 1451 1449 1446 1443 1439 1436 1436 1435 1433 1430 1430 1428 1422 1418 1420 1418 1413 1412 1409 1408 1412 1413 1412 1417 1418 1416 1416 1415 1413 1412 1408 1400 1395 1393 1395 1393 1391 1399 1404 1401 1404 1411 1410 1405 1404 1403 1406 1410 1411 1408 1406 1407 1411 1413 1411 1412 1415 1417 1418 1418 1420 1426 1424 1414 1408 1408 1408 1411 1413 1415 1416 1417 1419 1421 1424 1427 1429 1431 1434
1467 1467 1466 1465 1462 1456 1453 1453 1452 1452 1449 1445 1442 1440 1438 1437 1436 1436 1431 1425 1425 1424 1419 1418 1416 1411 1410 1410 1408 1409 1408 1407 1410 1410 1409 1413 1412 1410 1409 1405 1401 1400 1399 1398 1397 1394 1398 1405 1402 1404 1414 1412 1402 1403 1405 1404 1408 1411 1408 1404 1405 1408 1411 1410 1408 1408 1411 1416 1421 1427 1430 1423 1410 1406 1409 1411 1412 1413 1415 1415 1416 1418 1419 1422 1424 1428 1431 1434
1466 1466 1466 1466 1463 1456 1453 1453 1452 1451 1448 1444 1443 1443 1442 1438 1436 1437 1433 1423 1419 1421 1419 1417 1415 1411 1411 1412 1409 1407 1407 1406 1405 1403 1404 1407 1405 1403 1403 1401 1399 1401 1401 1400 1399 1396 1398 1403 1403 1406 1414 1410 1401 1401 1403 1407 1418 1420 1407 1399 1401 1402 1402 1404 1404 1404 1404 1407 1415 1422 1420 1410 1405 1406 1410 1412 1413 1412 1412 1412 1413 1416 1419 1422 1425 1428 1431 1434